EN

Hourly Weather Ambur

Today, 26 January, Tuesday

Time Temperature Precipitation Wind Pressure Humidity
00:00 +21°C° 0 mm 1 mps 728 mmHg 88%
01:00 +18°C° 0 mm 0 mps 727 mmHg 91%
02:00 +18°C° 0 mm 0 mps 727 mmHg 93%
03:00 +18°C° 0 mm 0 mps 727 mmHg 94%
04:00 +20°C° 0 mm 1 mps 727 mmHg 95%
05:00 +19°C° 0 mm 1 mps 727 mmHg 96%
06:00 +21°C° 0 mm 1 mps 727 mmHg 89%
07:00 +22°C° 0 mm 1 mps 728 mmHg 83%
08:00 +21°C° 0 mm 0 mps 728 mmHg 77%
09:00 +26°C° 0 mm 1 mps 728 mmHg 63%
10:00 +28°C° 0 mm 2 mps 728 mmHg 49%
11:00 +30°C° 0 mm 3 mps 728 mmHg 35%
12:00 +31°C° 0 mm 3 mps 728 mmHg 32%
13:00 +31°C° 0 mm 3 mps 727 mmHg 30%
14:00 +33°C° 0 mm 3 mps 726 mmHg 27%
15:00 +31°C° 0 mm 3 mps 726 mmHg 32%
16:00 +30°C° 0 mm 3 mps 726 mmHg 37%
17:00 +29°C° 0 mm 3 mps 726 mmHg 41%
18:00 +27°C° 0 mm 3 mps 726 mmHg 49%
19:00 +25°C° 0 mm 3 mps 727 mmHg 58%
20:00 +23°C° 0 mm 2 mps 727 mmHg 66%
21:00 +21°C° 0 mm 2 mps 727 mmHg 72%
22:00 +20°C° 0 mm 2 mps 727 mmHg 79%
23:00 +20°C° 0 mm 1 mps 728 mmHg 85%

Tomorrow, 27 January, Wednesday

Time Temperature Precipitation Wind Pressure Humidity
00:00 +20°C° 0 mm 1 mps 727 mmHg 87%
01:00 +19°C° 0 mm 1 mps 727 mmHg 89%
02:00 +17°C° 0 mm 0 mps 726 mmHg 91%
03:00 +17°C° 0 mm 0 mps 726 mmHg 91%
04:00 +16°C° 0 mm 0 mps 726 mmHg 91%
05:00 +16°C° 0 mm 0 mps 726 mmHg 91%
06:00 +18°C° 0 mm 0 mps 727 mmHg 84%
07:00 +19°C° 0 mm 0 mps 728 mmHg 77%
08:00 +21°C° 0 mm 0 mps 728 mmHg 69%
09:00 +25°C° 0 mm 1 mps 728 mmHg 58%
10:00 +27°C° 0 mm 2 mps 728 mmHg 47%
11:00 +30°C° 0 mm 3 mps 728 mmHg 36%
12:00 +30°C° 0 mm 3 mps 727 mmHg 36%
13:00 +32°C° 0 mm 4 mps 727 mmHg 36%
14:00 +32°C° 0 mm 4 mps 726 mmHg 36%
15:00 +30°C° 0 mm 4 mps 726 mmHg 40%
16:00 +30°C° 0 mm 3 mps 726 mmHg 44%
17:00 +29°C° 0 mm 3 mps 726 mmHg 48%
18:00 +27°C° 0 mm 3 mps 727 mmHg 56%
19:00 +25°C° 0 mm 2 mps 727 mmHg 65%
20:00 +23°C° 0 mm 2 mps 728 mmHg 73%
21:00 +21°C° 0 mm 2 mps 728 mmHg 78%
22:00 +21°C° 0 mm 1 mps 728 mmHg 84%
23:00 +21°C° 0 mm 1 mps 728 mmHg 89%

Day after tomorrow, 28 January, Thursday

Time Temperature Precipitation Wind Pressure Humidity
00:00 +20°C° 0 mm 1 mps 727 mmHg 91%
01:00 +20°C° 0 mm 1 mps 727 mmHg 92%
02:00 +17°C° 0 mm 0 mps 726 mmHg 94%
03:00 +17°C° 0 mm 0 mps 727 mmHg 94%
04:00 +17°C° 0 mm 0 mps 727 mmHg 94%
05:00 +17°C° 0 mm 0 mps 727 mmHg 94%
06:00 +18°C° 0 mm 0 mps 727 mmHg 90%
07:00 +19°C° 0 mm 0 mps 728 mmHg 86%
08:00 +20°C° 0 mm 0 mps 729 mmHg 82%
09:00 +25°C° 0 mm 1 mps 729 mmHg 70%
10:00 +27°C° 0 mm 2 mps 729 mmHg 58%
11:00 +29°C° 0 mm 3 mps 729 mmHg 46%
12:00 +30°C° 0 mm 3 mps 728 mmHg 43%
13:00 +30°C° 0 mm 4 mps 727 mmHg 40%
14:00 +32°C° 0 mm 4 mps 727 mmHg 37%
15:00 +30°C° 0 mm 4 mps 726 mmHg 40%
16:00 +29°C° 0 mm 3 mps 726 mmHg 44%
17:00 +29°C° 0 mm 3 mps 726 mmHg 48%
18:00 +27°C° 0 mm 3 mps 727 mmHg 57%
19:00 +25°C° 0 mm 3 mps 728 mmHg 66%
20:00 +23°C° 0 mm 2 mps 728 mmHg 74%
21:00 +21°C° 0 mm 2 mps 728 mmHg 81%
22:00 +20°C° 0 mm 2 mps 728 mmHg 87%
23:00 +20°C° 0 mm 1 mps 728 mmHg 93%

29 January, Friday

Time Temperature Precipitation Wind Pressure Humidity
00:00 +20°C° 0 mm 1 mps 728 mmHg 94%
01:00 +20°C° 0 mm 1 mps 727 mmHg 95%
02:00 +19°C° 0 mm 1 mps 727 mmHg 96%
03:00 +19°C° 0 mm 1 mps 727 mmHg 96%
04:00 +19°C° 0 mm 1 mps 727 mmHg 96%
05:00 +19°C° 0 mm 1 mps 727 mmHg 95%
06:00 +21°C° 0 mm 1 mps 728 mmHg 89%
07:00 +21°C° 0 mm 2 mps 728 mmHg 83%
08:00 +23°C° 0 mm 2 mps 729 mmHg 76%
09:00 +25°C° 0 mm 2 mps 729 mmHg 65%
10:00 +27°C° 0 mm 3 mps 729 mmHg 54%
11:00 +29°C° 0 mm 3 mps 729 mmHg 42%
12:00 +30°C° 0 mm 3 mps 728 mmHg 39%
13:00 +31°C° 0 mm 3 mps 727 mmHg 36%
14:00 +33°C° 0 mm 3 mps 727 mmHg 32%
15:00 +31°C° 0 mm 3 mps 726 mmHg 36%
16:00 +30°C° 0 mm 3 mps 726 mmHg 39%
17:00 +29°C° 0 mm 3 mps 726 mmHg 43%
18:00 +27°C° 0 mm 2 mps 727 mmHg 50%
19:00 +25°C° 0 mm 2 mps 727 mmHg 57%
20:00 +23°C° 0 mm 2 mps 728 mmHg 65%
21:00 +21°C° 0 mm 2 mps 728 mmHg 71%
22:00 +22°C° 0 mm 1 mps 728 mmHg 77%
23:00 +21°C° 0 mm 1 mps 728 mmHg 84%

30 January, Saturday

Time Temperature Precipitation Wind Pressure Humidity
00:00 +20°C° 0 mm 1 mps 727 mmHg 85%
01:00 +20°C° 0 mm 1 mps 727 mmHg 87%
02:00 +19°C° 0 mm 1 mps 727 mmHg 88%
03:00 +17°C° 0 mm 0 mps 727 mmHg 86%
04:00 +17°C° 0 mm 0 mps 726 mmHg 85%
05:00 +17°C° 0 mm 0 mps 726 mmHg 83%
06:00 +20°C° 0 mm 1 mps 727 mmHg 76%
07:00 +22°C° 0 mm 1 mps 728 mmHg 70%
08:00 +23°C° 0 mm 1 mps 728 mmHg 63%
09:00 +26°C° 0 mm 1 mps 728 mmHg 56%
10:00 +28°C° 0 mm 2 mps 728 mmHg 49%
11:00 +30°C° 0 mm 3 mps 728 mmHg 41%
12:00 +31°C° 0 mm 3 mps 728 mmHg 39%
13:00 +33°C° 0 mm 3 mps 727 mmHg 37%
14:00 +33°C° 0 mm 3 mps 726 mmHg 34%
15:00 +31°C° 0 mm 3 mps 726 mmHg 38%
16:00 +31°C° 0 mm 3 mps 726 mmHg 42%
17:00 +30°C° 0 mm 3 mps 726 mmHg 46%
18:00 +28°C° 0 mm 3 mps 726 mmHg 54%
19:00 +26°C° 0 mm 2 mps 727 mmHg 62%
20:00 +24°C° 0 mm 2 mps 728 mmHg 70%
21:00 +24°C° 0 mm 2 mps 728 mmHg 75%
22:00 +23°C° 0 mm 1 mps 728 mmHg 80%
23:00 +22°C° 0 mm 1 mps 728 mmHg 85%

31 January, Sunday

Time Temperature Precipitation Wind Pressure Humidity
00:00 +22°C° 0 mm 1 mps 727 mmHg 86%
01:00 +21°C° 0 mm 1 mps 727 mmHg 88%
02:00 +21°C° 0 mm 1 mps 726 mmHg 89%
03:00 +21°C° 0 mm 1 mps 726 mmHg 89%
04:00 +18°C° 0 mm 0 mps 726 mmHg 88%
05:00 +18°C° 0 mm 0 mps 726 mmHg 88%
06:00 +20°C° 0 mm 0 mps 727 mmHg 81%
07:00 +23°C° 0 mm 1 mps 728 mmHg 73%
08:00 +25°C° 0 mm 1 mps 728 mmHg 66%
09:00 +27°C° 0 mm 2 mps 728 mmHg 59%
10:00 +29°C° 0 mm 2 mps 729 mmHg 53%
11:00 +31°C° 0 mm 3 mps 729 mmHg 46%
12:00 +33°C° 0 mm 4 mps 728 mmHg 45%
13:00 +33°C° 0 mm 4 mps 727 mmHg 44%
14:00 +34°C° 0 mm 4 mps 727 mmHg 42%
15:00 +33°C° 0 mm 4 mps 726 mmHg 47%
16:00 +30°C° 0 mm 4 mps 726 mmHg 53%
17:00 +29°C° 0 mm 4 mps 726 mmHg 58%
18:00 +28°C° 0 mm 4 mps 727 mmHg 65%
19:00 +26°C° 0 mm 3 mps 728 mmHg 72%
20:00 +25°C° 0 mm 2 mps 728 mmHg 78%
21:00 +24°C° 0 mm 2 mps 728 mmHg 83%
22:00 +23°C° 0 mm 2 mps 728 mmHg 88%
23:00 +23°C° 0 mm 1 mps 728 mmHg 93%
Show more